Regional Weather Roundup
Issued by NWS

Home | Current Version | Previous Version | Graphics & Text | Print | Product List | Glossary On
Versions: 1 2 3 4 5 6 7 8 9 10 11 12 13 14 15 16 17 18 19 20 21 22 23 24 25 26 27 28 29 30 31 32 33 34 35 36 37 38 39 40 41 42 43 44 45 46 47 48 49 50
000
ASUS43 KFSD 231302
RWRSD

WEATHER ROUNDUP FOR SOUTH DAKOTA
NATIONAL WEATHER SERVICE SIOUX FALLS SD
800 AM CDT SAT AUG 23 2014

NOTE: "FAIR" INDICATES FEW OR NO CLOUDS BELOW 12,000 FEET WITH NO
SIGNIFICANT WEATHER AND/OR OBSTRUCTIONS TO VISIBILITY.


SDZ001>005-009-010-012>017-231400-
NORTHWEST AND NORTH CENTRAL SOUTH DAKOTA

CITY           SKY/WX    TMP DP  RH WIND       PRES   REMARKS
BUFFALO          N/A     61  59  93 E17G26    29.87R
FAITH            N/A     62  61  96 E23       29.90F
MOBRIDGE       LGT RAIN  63  62  97 NE18G26   29.90F
$$

SDZ012>016-024>037-041>051-057-063-072>074-231400-
SOUTHWEST AND SOUTH CENTRAL SOUTH DAKOTA

CITY           SKY/WX    TMP DP  RH WIND       PRES   REMARKS
RAPID CTY ARPT LGT RAIN  64  61  90 CALM      29.90F
PIERRE         LGT RAIN  67  67 100 E13       29.85S
ELLSWORTH AFB  DRIZZLE   64  62  93 SE3       29.90F
PHILIP         HVY RAIN  67  65  93 N3        29.86S FOG
PINE RIDGE     CLOUDY    63  62  97 CALM      29.89F
WINNER         CLOUDY    70  68  93 SE15      29.86R FOG
$$

SDZ004>011-016>023-039-040-231400-
NORTHEAST SOUTH DAKOTA

CITY           SKY/WX    TMP DP  RH WIND       PRES   REMARKS
ABERDEEN       LGT RAIN  63  63 100 NE15      29.93F FOG
WATERTOWN      LGT RAIN  68  66  93 E10       29.91F FOG
SISSETON         N/A     67  67 100 E6        29.96F
$$

SDZ017-020-022-023-036>040-048>070-231400-
SOUTHEAST SOUTH DAKOTA

CITY           SKY/WX    TMP DP  RH WIND       PRES   REMARKS
SIOUX FALLS    CLOUDY    71  67  87 E10       29.88F
HURON          CLOUDY    71  68  90 E12       29.85R
CHAMBERLAIN    CLOUDY    68  68  99 SE14      29.86R
MITCHELL       CLOUDY    70  68  93 SE8       29.88R
YANKTON        PTSUNNY   68  68 100 S5        29.89R
$$

ABBREVIATIONS USED IN REMARKS
   TC - TEMPERATURE IN CELSIUS
  WCI - WIND CHILL INDEX
   HX - HEAT INDEX
  VSB - VISIBILITY




USA.gov is the U.S. government's official web portal to all federal, state and local government web resources and services.